Location: Newark
(51.2000°N, 58.6167°E)
Time: 23:19:39
(UTC+00:00)

ISS - Pass Details

Date: 27 September 2020
Orbit: 417 x 420 km, 51.6° (Epoch: 27 October)

Event Time Altitude Azimuth Distance (km) Brightness Sun altitude
Rises 14:20:06 0° 261° (W) 2,365 2.2 -5.3°
Reaches altitude 10° 14:22:11 10° 262° (W) 1,503 0.7 -5.6°
Maximum altitude 14:25:34 87° 348° (NNW) 426 -3.7 -6.1°
Drops below altitude 10° 14:28:57 10° 82° (E) 1,506 -1.6 -6.6°
Enters shadow 14:29:16 - 82° (E) 1,633 -1.4 -6.7°
